Location: Góry Miechowskie
(50.3599°N, 20.1803°E)
Time: 16:06:47
(UTC+00:00)

A-11 Canister half - Pass Details

Date: 21 September 2024
Orbit: 1515 x 1684 km, 47.2° (Epoch: 07 October)

Event Time Altitude Azimuth Distance (km) Brightness Sun altitude
Rises 20:18:41 0° 281° (WNW) 4,696 12.2 -32.0°
Reaches altitude 10° 20:21:48 10° 278° (W) 3,698 11.5 -32.3°
Enters shadow 20:30:40 58° 206° (SSW) 1,727 9.0 -33.2°
Maximum altitude 20:30:48 58° 203° (SSW) 1,726 - -33.2°
Drops below altitude 10° 20:39:46 10° 127° (SE) 3,682 - -34.0°
Sets 20:42:52 0° 124° (SE) 4,673 - -34.3°
